#timestamp,LO_Frequency,Hit,StdDev 
1541718015.4,286046996.6,N
1541718035.2,286046998.4,N
1541718055.0,286046999.5,N
1541718055.9,286046999.5,N
1541718075.8,286047000.8,N
1541718095.6,286047002.4,N
1541718115.5,286047002.4,N
1541718135.3,286047001.3,N
1541718155.1,286047003.2,N
1541718175.9,286046999.8,N
1541718195.7,286047000.2,N
1541718215.5,286047004.1,N
1541718235.4,286047002.5,N
1541718255.2,286046999.7,N
1541718275.1,286047002.6,N
1541718276.0,286047002.6,N
1541718295.8,286046999.7,N
1541718315.6,286047001.8,N
1541718335.5,286047001.7,N
1541718355.3,286047004.1,N
1541718375.2,286047001.3,N
1541718395.9,286047001.4,N
1541718415.7,286047003.9,N
1541718435.6,286047005.2,N
1541718455.4,286047003.0,N
1541718475.2,286047005.9,Y
1541718495.1,286047003.5,P
1541718496.0,286047003.5,P
1541718515.8,286047004.1,P
1541718535.7,286047004.2,Y
1541718555.5,286047000.6,P
1541718575.3,286047001.0,N
1541718595.2,286046998.1,N
1541718615.0,286047000.5,N
1541718615.9,286047000.5,N
1541718635.8,286047000.1,N
1541718655.6,286047004.0,N
1541718675.4,286047000.1,N
1541718695.3,286046999.7,N
1541718715.1,286046999.7,N
1541718716.0,286046999.7,N
1541718735.8,286046999.7,N
1541718755.7,286047002.8,N
1541718775.5,286047002.8,N
1541718795.4,286047000.2,N
1541718815.2,286047004.4,N
1541718835.0,286047004.3,N
1541718835.9,286047004.3,N
1541718855.8,286047001.5,N
1541718875.6,286047004.4,N
1541718895.4,286047004.4,N
1541718915.3,286047000.8,N
1541718935.1,286047000.8,N
1541718955.9,286046998.1,N
1541718975.7,286046996.5,N
1541718995.5,286046998.6,N
1541719015.4,286046998.4,N
1541719035.2,286046999.4,N
1541719055.0,286046996.9,N
1541719055.9,286046996.9,N
1541719075.8,286046996.8,N
1541719095.6,286047000.9,N
1541719115.5,286046998.3,N
1541719135.3,286047000.6,N
1541719155.1,286047000.6,N
1541719175.9,286047001.2,N
1541719195.7,286047000.4,N
1541719215.5,286047002.1,N
1541719235.4,286047001.9,N
1541719255.2,286047002.5,N
1541719275.0,286047000.2,N
1541719276.0,286047000.2,N
1541719295.8,286047001.0,N
1541719315.6,286046996.6,N
1541719335.5,286046997.0,N
1541719355.3,286046999.3,N
1541719375.1,286046996.6,N
1541719395.9,286046995.7,N
1541719415.7,286046997.1,N
1541719435.6,286046997.4,N
1541719455.4,286046996.2,N
1541719475.2,286046996.7,N
1541719495.1,286046995.5,N
1541719496.0,286046995.5,N
1541719515.8,286046995.4,N
1541719535.6,286046995.1,N
1541719555.5,286046997.0,N
1541719575.3,286046997.4,N
1541719595.2,286046996.4,N
1541719615.9,286046996.6,N
1541719635.7,286046997.6,N
1541719655.6,286046995.3,N
1541719675.4,286046993.6,N
1541719695.2,286046993.9,N
1541719715.1,286046995.7,N
1541719716.0,286046995.7,N
1541719735.8,286046993.5,N
1541719755.7,286046992.2,Y
1541719775.5,286046996.4,P
1541719795.3,286046992.2,P
1541719815.2,286046994.2,N
1541719835.9,286046993.4,Y
1541719855.7,286046998.6,P
1541719875.6,286046997.3,N
1541719895.4,286046995.9,N
1541719915.3,286046994.1,Y
1541719935.1,286046999.1,P
1541719936.0,286046999.1,N
1541719955.8,286046996.9,N
1541719975.7,286046995.6,Y
1541719995.5,286046996.6,P
1541720015.3,286046997.5,P
1541720035.2,286046996.6,P
1541720055.0,286046994.9,Y
1541720055.9,286046994.9,P
1541720075.8,286046998.1,N
1541720095.6,286047001.0,N
1541720115.4,286046996.7,N
1541720135.3,286047000.4,N
1541720155.1,286046999.4,N
1541720175.8,286046994.9,N
1541720195.7,286046997.1,N
1541720215.5,286046995.9,N
1541720235.4,286046995.3,N
1541720255.2,286046996.7,N
1541720275.0,286046995.3,N
1541720275.9,286046995.3,N
1541720295.8,286046993.4,Y
1541720315.6,286046999.0,P
1541720335.5,286046997.4,N
1541720355.3,286046995.4,P
1541720375.1,286046995.1,Y
1541720395.9,286046997.5,P
1541720415.7,286046995.0,P
1541720435.5,286046997.7,N
1541720455.4,286046998.0,N
1541720475.2,286046997.1,N
1541720495.1,286046997.8,N
1541720496.0,286046997.8,N
1541720515.8,286046995.2,Y
1541720535.6,286046999.1,P
1541720555.5,286046998.6,N
1541720575.3,286046998.8,N
1541720595.2,286046997.6,Y
1541720615.9,286046999.3,P
1541720635.7,286046998.0,P
1541720655.6,286046997.9,P
1541720675.4,286046996.3,Y
1541720695.2,286046997.5,P
1541720715.1,286046999.4,N
1541720716.0,286046999.4,N
1541720735.8,286046995.6,Y
1541720755.7,286046995.0,P
1541720775.5,286046993.4,P
1541720795.3,286046993.7,N
1541720815.2,286046996.1,N
1541720835.0,286046993.4,Y
1541720835.9,286046993.4,P
1541720855.8,286046998.3,N
1541720875.6,286046997.1,N
1541720895.4,286046999.2,N
1541720915.3,286046998.0,N
1541720935.1,286046996.2,N
1541720955.8,286046993.9,Y
1541720975.7,286046998.3,P
1541720995.5,286046996.7,P
1541721015.4,286046996.8,P
1541721035.2,286046995.0,Y
1541721055.0,286046998.1,P
1541721055.9,286046998.1,P
1541721075.8,286046998.8,N
1541721095.6,286046997.0,Y
1541721115.4,286047001.0,P
1541721135.3,286046999.2,N
1541721155.1,286046996.5,N
1541721175.9,286046999.6,N
1541721195.7,286046998.0,N
1541721215.5,286046995.1,Y
1541721235.4,286046999.2,P
1541721255.2,286046996.8,P
1541721275.1,286046995.5,P
1541721276.0,286046995.5,Y
1541721295.8,286046999.6,P
1541721315.6,286046996.7,P
1541721335.5,286046997.2,N
1541721355.3,286046997.9,N
1541721375.1,286046997.7,N
1541721395.9,286046996.3,Y
1541721415.7,286046996.9,P
1541721435.6,286046999.5,N
1541721455.4,286046998.9,N
1541721475.2,286046999.3,N
1541721495.1,286046999.4,N
1541721496.0,286046999.4,N
1541721515.8,286046995.3,Y
1541721535.7,286046995.3,P
1541721555.5,286046995.5,N
1541721575.3,286046995.7,N
1541721595.2,286046993.9,Y
